Weather Service Report


992 
ASUS43 KBIS 292220
RWRBIS

NWR BROADCAST TEXT
NATIONAL WEATHER SERVICE BISMARCK ND
400 PM CST THU JAN 29 2015

NOTE: "FAIR" INDICATES FEW OR NO CLOUDS BELOW 12,000 FEET WITH NO
SIGNIFICANT WEATHER AND/OR OBSTRUCTIONS TO VISIBILITY.

  
CITY           SKY/WX    TMP DP  RH WIND       PRES   REMARKS
WILLISTON      MOSUNNY   31  20  63 W5        30.40F                  
MINOT          CLOUDY    19  11  70 N5        30.46S WCI  12          
MINOT AFB      CLOUDY    18  14  86 N2        30.46F                  
BISMARCK       MOSUNNY   29  18  63 NW5       30.46S                  
DICKINSON      SUNNY     38  20  48 CALM      30.35F                  
GARRISON         N/A     26  18  71 N5        30.44R                  
HETTINGER ARPT SUNNY     40  14  34 W6        30.39F                  
JAMESTOWN      CLOUDY    19  12  74 N12       30.47F WCI   7          
BEACH          FAIR      37  25  60 SW6       30.37S                  
CARRINGTON     FLURRIES  18  14  86 MISG      30.49S                  
CROSBY         MOCLDY    25  19  80 CALM      30.42S                  
HARVEY         CLOUDY    16  10  79 N7        30.48S WCI   6          
HAZEN          MOCLDY    28  18  64 CALM      30.45S                  
LINTON         CLOUDY    28  23  80 NE8       30.45S                  
MANDAN         MOCLDY    28  19  69 N5        30.45S                  
OAKES            N/A     21  16  79 N14G20    30.49S WCI   8          
RUGBY          MOCLDY    12   7  79 N3        30.48F                  
STANLEY        FAIR      27  21  80 CALM      30.40S                  
TIOGA          FAIR      27  23  86 SW5       30.42S                  
WATFORD CITY   FAIR      32  23  69 CALM      30.38S                  
$$
  
CITY           SKY/WX    TMP DP  RH WIND       PRES   REMARKS
GRAND FORKS    MOSUNNY   13   3  64 N14       30.55R WCI  -2          
GRAND FORKS AF MOSUNNY   14   2  60 N10       30.55R WCI   1          
DEVILS LAKE    CLOUDY    12   7  79 N8        30.49S WCI   1          
FARGO          PTSUNNY   18   6  59 N20       30.52R WCI   2          
CANDO          CLOUDY    12   7  79 N5        30.50S WCI   4          
CAVALIER       FAIR       9   1  72 N14       30.56R WCI  -8          
GWINNER        CLOUDY    23  16  74 N15       30.51R WCI  10          
ROLLA          MOCLDY     9   5  85 CALM      30.47S                  
WALHALLA         N/A      9   1  72 NW12      30.56S WCI  -6          
$$
  
CITY           SKY/WX    TMP DP  RH WIND       PRES   REMARKS
ABERDEEN       CLOUDY    25  17  72 N17       30.51R WCI  12          
MOBRIDGE       SUNNY     36  21  54 NE8       30.42F                  
BUFFALO          N/A     43   5  20 CALM      30.31F                  
RAPID CITY     SUNNY     47  13  25 VRB3      30.40F                  
GLASGOW        MOSUNNY   35  32  88 MISG      30.29F FOG              
SIDNEY         SUNNY     36  25  64 SE5       30.40S                  
WOLF POINT     SUNNY     40  28  62 SE7       30.35F                  
GLENDIVE       SUNNY     39  25  56 S10       30.37S                  
MILES CITY     SUNNY     44  28  53 SE9       30.33F                  
BAKER          SUNNY     42  12  29 SW5       30.36F                  
$$
  
CITY           SKY/WX    TMP DP  RH WIND       PRES   REMARKS
BILLINGS       MOSUNNY   49  26  41 S9        30.27F                  
GREAT FALLS    MOSUNNY   48  17  29 SW13      30.21F                  
REGINA         CLOUDY    14  10  85 SE10      30.40F WCI   1          
ESTEVAN        CLOUDY    19  14  79 CALM      30.43                   
$$



993 
ASUS43 KBIS 292220
RWRND 

NORTH DAKOTA REGIONAL WEATHER ROUNDUP
NATIONAL WEATHER SERVICE BISMARCK ND
400 PM CST THU JAN 29 2015

NOTE: "FAIR" INDICATES FEW OR NO CLOUDS BELOW 12,000 FEET WITH NO
SIGNIFICANT WEATHER AND/OR OBSTRUCTIONS TO VISIBILITY.


NDZ001>003-009>011-017-292300-
NORTHWEST NORTH DAKOTA
  
CITY           SKY/WX    TMP DP  RH WIND       PRES   REMARKS
WILLISTON      MOSUNNY   31  20  63 W5        30.40F                  
MINOT          CLOUDY    19  11  70 N5        30.46S WCI  12          
MINOT AFB      CLOUDY    18  14  86 N2        30.46F                  
$$
 
NDZ018>021-031>035-040>046-292300-
SOUTHWEST NORTH DAKOTA
  
CITY           SKY/WX    TMP DP  RH WIND       PRES   REMARKS
BISMARCK       MOSUNNY   29  18  63 NW5       30.46S                  
DICKINSON      SUNNY     38  20  48 CALM      30.35F                  
GARRISON         N/A     26  18  71 N5        30.44R                  
HETTINGER ARPT SUNNY     40  14  34 W6        30.39F                  
$$
 
NDZ004>008-012>016-024-026-027-054-292300-
NORTHEAST NORTH DAKOTA
  
CITY           SKY/WX    TMP DP  RH WIND       PRES   REMARKS
GRAND FORKS    MOSUNNY   13   3  64 N14       30.55R WCI  -2          
GRND FRKS AFB  MOSUNNY   14   2  60 N10       30.55R WCI   1          
DEVILS LAKE    CLOUDY    12   7  79 N8        30.49S WCI   1          
$$
 
NDZ022-023-025-028>030-036>039-047>053-292300-
SOUTHEAST NORTH DAKOTA
  
CITY           SKY/WX    TMP DP  RH WIND       PRES   REMARKS
FARGO          PTSUNNY   18   6  59 N20       30.52R WCI   2          
JAMESTOWN      CLOUDY    19  12  74 N12       30.47F WCI   7          
$$ 


Return to Home page


Western Regional Climate Center, wrcc@dri.edu